Location: Millers Ferry
(32.0990°N, 87.3680°W)
Time: 02:28:25
(UTC-06:00)

CSL-04 Rocket - Visible Passes

Search period start: 23 January 2017 00:00
Search period end: 02 February 2017 00:00
Orbit: 806 x 861 km, 99.0° (Epoch: 22 January)

Date Brightness Start Highest point End Pass type
(mag) Time Alt. Az. Time Alt. Az. Time Alt. Az.
23 Jan 6.1 04:27:29 10° NE 04:31:22 21° E 04:35:14 10° SE visible
23 Jan 4.1 06:06:53 10° N 06:11:43 37° WNW 06:16:32 10° SW visible
24 Jan 6.6 04:11:47 10° ENE 04:14:20 14° E 04:16:52 10° ESE visible
24 Jan 3.7 05:49:46 10° N 05:54:55 56° WNW 06:00:03 10° SSW visible
25 Jan 3.5 05:32:47 10° NNE 05:38:04 83° WNW 05:43:21 10° SSW visible
26 Jan 4.0 05:15:56 10° NNE 05:21:11 67° ESE 05:26:26 10° S visible
26 Jan 7.3 18:20:13 10° W 18:20:57 10° W 18:21:42 10° W visible
27 Jan 4.8 04:59:15 10° NNE 05:04:16 44° E 05:09:17 10° S visible
27 Jan 6.7 18:00:37 10° SW 18:03:55 16° W 18:07:13 10° WNW visible
28 Jan 5.5 04:42:44 10° NE 04:47:19 29° E 04:51:53 10° SSE visible
28 Jan 6.4 17:42:35 10° SSW 17:46:55 24° W 17:51:15 10° NW visible
29 Jan 6.1 04:26:32 10° NE 04:30:20 20° E 04:34:07 10° SE visible
29 Jan 4.0 06:05:50 10° N 06:10:42 39° WNW 06:15:34 10° SW visible
30 Jan 6.6 04:10:55 10° ENE 04:13:18 13° E 04:15:40 10° ESE visible
30 Jan 3.6 05:48:43 10° N 05:53:53 58° WNW 05:59:04 10° SSW visible
31 Jan 3.6 05:31:44 10° NNE 05:37:02 86° WNW 05:42:21 10° SSW visible
01 Feb 4.1 05:14:54 10° NNE 05:20:09 64° ESE 05:25:25 10° S visible
01 Feb 7.3 18:18:49 10° WSW 18:19:57 11° W 18:21:04 10° W visible
